| time (UTC) | temp C | wind direction | speed KPH | gust KPH | rain 1hr cm | rain 24hr cm | rain mn cm | humidity % | barometer mb |
| 20260502160501 | 13 | 128 | 1.6 | 6.4 | 0.00 | 0.41 | 0.41 | 87 | 1011.1 |
| 20260502152001 | 12 | 180 | 0.0 | 3.2 | 0.33 | 0.41 | 0.41 | 86 | 1011.5 |
| 20260502151501 | 12 | 0 | 0.0 | 0.0 | 0.36 | 0.41 | 0.41 | 85 | 1011.6 |
| 20260502151001 | 12 | 42 | 0.0 | 1.6 | 0.38 | 0.41 | 0.41 | 85 | 1011.8 |
| 20260502150502 | 12 | 42 | 0.0 | 3.2 | 0.38 | 0.41 | 0.41 | 85 | 1011.9 |
| 20260502130501 | 19 | 112 | 4.8 | 11.3 | 0.00 | 0.00 | 0.00 | 57 | 1013.0 |
| 20260502123503 | 19 | 149 | 3.2 | 12.9 | 0.00 | 0.00 | 0.00 | 57 | 1013.3 |
| 20260502123001 | 19 | 132 | 3.2 | 12.9 | 0.00 | 0.00 | 0.00 | 56 | 1013.5 |
| 20260502122501 | 19 | 144 | 3.2 | 12.9 | 0.00 | 0.00 | 0.00 | 55 | 1013.6 |
| 20260502122022 | 19 | 161 | 3.2 | 14.5 | 0.00 | 0.00 | 0.00 | 58 | 1013.6 |
| 20260502121502 | 19 | 154 | 4.8 | 14.5 | 0.00 | 0.00 | 0.00 | 56 | 1013.8 |
| 20260502121023 | 20 | 138 | 4.8 | 11.3 | 0.00 | 0.00 | 0.00 | 56 | 1013.9 |
| 20260502120502 | 20 | 115 | 4.8 | 11.3 | 0.00 | 0.00 | 0.00 | 60 | 1013.9 |
| 20260502115523 | 19 | 146 | 1.6 | 8.0 | 0.00 | 0.00 | 0.00 | 60 | 1014.0 |
| 20260502115002 | 19 | 143 | 3.2 | 9.7 | 0.00 | 0.00 | 0.00 | 57 | 1014.1 |
| 20260502114502 | 19 | 137 | 3.2 | 9.7 | 0.00 | 0.00 | 0.00 | 56 | 1014.1 |
| 20260502114004 | 18 | 101 | 3.2 | 14.5 | 0.00 | 0.00 | 0.00 | 58 | 1014.2 |
| 20260502113502 | 18 | 126 | 3.2 | 14.5 | 0.00 | 0.00 | 0.00 | 57 | 1014.3 |
| 20260502113002 | 19 | 133 | 3.2 | 11.3 | 0.00 | 0.00 | 0.00 | 59 | 1014.3 |
| 20260502112502 | 18 | 92 | 3.2 | 9.7 | 0.00 | 0.00 | 0.00 | 61 | 1014.3 |
| 20260502112023 | 18 | 59 | 4.8 | 12.9 | 0.00 | 0.00 | 0.00 | 58 | 1014.3 |
| 20260502111502 | 18 | 56 | 4.8 | 12.9 | 0.00 | 0.00 | 0.00 | 64 | 1014.5 |
| 20260502111001 | 18 | 75 | 4.8 | 11.3 | 0.00 | 0.00 | 0.00 | 64 | 1014.6 |
| 20260502110523 | 18 | 100 | 3.2 | 11.3 | 0.00 | 0.00 | 0.00 | 67 | 1014.7 |
| 20260502110002 | 18 | 122 | 3.2 | 8.0 | 0.00 | 0.00 | 0.00 | 67 | 1014.8 |
| 20260502105502 | 18 | 135 | 3.2 | 9.7 | 0.00 | 0.00 | 0.00 | 68 | 1015.0 |
| 20260502105003 | 17 | 119 | 3.2 | 9.7 | 0.00 | 0.00 | 0.00 | 71 | 1015.1 |
| 20260502104502 | 17 | 108 | 1.6 | 6.4 | 0.00 | 0.00 | 0.00 | 72 | 1015.1 |
| 20260502104002 | 17 | 113 | 1.6 | 6.4 | 0.00 | 0.00 | 0.00 | 73 | 1015.1 |
| 20260502103502 | 17 | 101 | 1.6 | 6.4 | 0.00 | 0.00 | 0.00 | 73 | 1015.2 |
| 20260502103002 | 17 | 113 | 1.6 | 9.7 | 0.00 | 0.00 | 0.00 | 75 | 1015.2 |
| 20260502102502 | 16 | 20 | 3.2 | 9.7 | 0.00 | 0.00 | 0.00 | 77 | 1015.4 |
| 20260502102003 | 16 | 332 | 1.6 | 8.0 | 0.00 | 0.00 | 0.00 | 76 | 1015.5 |
| 20260502101502 | 16 | 4 | 1.6 | 8.0 | 0.00 | 0.00 | 0.00 | 78 | 1015.5 |
| 20260502101002 | 16 | 8 | 1.6 | 8.0 | 0.00 | 0.00 | 0.00 | 78 | 1015.5 |
| 20260502100503 | 16 | 25 | 3.2 | 8.0 | 0.00 | 0.00 | 0.00 | 79 | 1015.6 |
| 20260502091502 | 12 | 95 | 1.6 | 4.8 | 0.00 | 0.00 | 0.00 | 92 | 1016.0 |
| 20260502091002 | 12 | 164 | 3.2 | 6.4 | 0.00 | 0.00 | 0.00 | 92 | 1016.1 |
| 20260502090502 | 12 | 175 | 1.6 | 6.4 | 0.00 | 0.00 | 0.00 | 92 | 1016.3 |
| 20260502071523 | 10 | 168 | 0.0 | 3.2 | 0.00 | 0.00 | 0.00 | 92 | 1017.1 |
| 20260502071002 | 10 | 180 | 1.6 | 3.2 | 0.00 | 0.00 | 0.00 | 92 | 1017.0 |
| 20260502070502 | 10 | 182 | 1.6 | 4.8 | 0.00 | 0.00 | 0.00 | 92 | 1017.0 |
| 20260502070004 | 10 | 174 | 1.6 | 6.4 | 0.00 | 0.00 | 0.00 | 92 | 1016.9 |
| 20260502065503 | 10 | 171 | 1.6 | 6.4 | 0.00 | 0.00 | 0.00 | 92 | 1016.9 |
| 20260502065003 | 10 | 188 | 0.0 | 4.8 | 0.00 | 0.00 | 0.00 | 92 | 1016.9 |
| 20260502064502 | 10 | 274 | 0.0 | 1.6 | 0.00 | 0.00 | 0.00 | 92 | 1016.9 |
| 20260502064002 | 10 | 0 | 0.0 | 1.6 | 0.00 | 0.00 | 0.00 | 92 | 1016.9 |
| 20260502063502 | 10 | 0 | 0.0 | 0.0 | 0.00 | 0.00 | 0.00 | 92 | 1016.9 |
| 20260502063023 | 10 | 0 | 0.0 | 1.6 | 0.00 | 0.00 | 0.00 | 92 | 1016.9 |
| 20260502062502 | 10 | 0 | 0.0 | 1.6 | 0.00 | 0.00 | 0.00 | 92 | 1017.0 |
| 20260502062002 | 10 | 0 | 0.0 | 0.0 | 0.00 | 0.00 | 0.00 | 92 | 1017.0 |
| 20260502061502 | 10 | 0 | 0.0 | 0.0 | 0.00 | 0.00 | 0.00 | 92 | 1017.0 |
| 20260502061002 | 10 | 260 | 0.0 | 1.6 | 0.00 | 0.00 | 0.00 | 92 | 1017.1 |
| 20260502060502 | 10 | 256 | 0.0 | 1.6 | 0.00 | 0.00 | 0.00 | 92 | 1017.0 |
| 20260502060002 | 10 | 244 | 0.0 | 1.6 | 0.00 | 0.00 | 0.00 | 92 | 1017.0 |
| 20260502055523 | 9 | 244 | 0.0 | 1.6 | 0.00 | 0.00 | 0.00 | 92 | 1016.9 |
| 20260502055002 | 9 | 0 | 0.0 | 1.6 | 0.00 | 0.00 | 0.00 | 92 | 1017.0 |
| 20260502054502 | 9 | 244 | 0.0 | 3.2 | 0.00 | 0.00 | 0.00 | 92 | 1017.0 |
| 20260502054003 | 9 | 247 | 0.0 | 3.2 | 0.00 | 0.00 | 0.00 | 92 | 1016.9 |
| 20260502053504 | 9 | 247 | 0.0 | 3.2 | 0.00 | 0.00 | 0.00 | 92 | 1017.0 |
| 20260502053004 | 9 | 183 | 0.0 | 1.6 | 0.00 | 0.00 | 0.00 | 92 | 1017.0 |
| 20260502052503 | 9 | 182 | 0.0 | 3.2 | 0.00 | 0.00 | 0.00 | 92 | 1017.0 |
| 20260502052024 | 9 | 236 | 0.0 | 3.2 | 0.00 | 0.00 | 0.00 | 92 | 1017.0 |
| 20260502051504 | 9 | 251 | 0.0 | 3.2 | 0.00 | 0.00 | 0.00 | 92 | 1017.1 |
| 20260502051002 | 9 | 203 | 0.0 | 3.2 | 0.00 | 0.00 | 0.00 | 92 | 1017.1 |
| 20260502050523 | 9 | 211 | 0.0 | 1.6 | 0.00 | 0.00 | 0.00 | 92 | 1017.1 |
| 20260502050023 | 9 | 0 | 0.0 | 0.0 | 0.00 | 0.00 | 0.00 | 92 | 1017.1 |
| 20260502045502 | 9 | 211 | 0.0 | 3.2 | 0.00 | 0.00 | 0.00 | 92 | 1017.1 |
| 20260502045002 | 9 | 211 | 0.0 | 3.2 | 0.00 | 0.00 | 0.00 | 92 | 1017.1 |
| 20260502044504 | 9 | 211 | 0.0 | 3.2 | 0.00 | 0.00 | 0.00 | 92 | 1017.0 |
| 20260502044002 | 9 | 0 | 0.0 | 1.6 | 0.00 | 0.00 | 0.00 | 92 | 1017.0 |
| 20260502043502 | 9 | 211 | 0.0 | 1.6 | 0.00 | 0.00 | 0.00 | 92 | 1017.0 |
| 20260502043023 | 9 | 211 | 0.0 | 1.6 | 0.00 | 0.00 | 0.00 | 92 | 1017.1 |
| 20260502042523 | 8 | 212 | 0.0 | 3.2 | 0.00 | 0.00 | 0.00 | 92 | 1017.1 |
| 20260502042002 | 8 | 212 | 0.0 | 3.2 | 0.00 | 0.00 | 0.00 | 92 | 1017.2 |
| 20260502041504 | 8 | 0 | 0.0 | 0.0 | 0.00 | 0.00 | 0.00 | 92 | 1017.2 |
| 20260502041002 | 8 | 217 | 0.0 | 1.6 | 0.00 | 0.00 | 0.00 | 92 | 1017.2 |
| 20260502040502 | 8 | 221 | 0.0 | 1.6 | 0.00 | 0.00 | 0.00 | 92 | 1017.2 |
| 20260502040002 | 8 | 243 | 0.0 | 3.2 | 0.00 | 0.00 | 0.00 | 91 | 1017.2 |
| 20260502035502 | 8 | 251 | 0.0 | 3.2 | 0.00 | 0.00 | 0.00 | 91 | 1017.2 |
| 20260502035004 | 8 | 251 | 0.0 | 1.6 | 0.00 | 0.00 | 0.00 | 92 | 1017.1 |
| 20260502034502 | 8 | 0 | 0.0 | 0.0 | 0.00 | 0.00 | 0.00 | 91 | 1017.1 |
| 20260502034002 | 8 | 251 | 0.0 | 1.6 | 0.00 | 0.00 | 0.00 | 92 | 1017.2 |
| 20260502033523 | 8 | 251 | 0.0 | 1.6 | 0.00 | 0.00 | 0.00 | 91 | 1017.2 |
| 20260502033023 | 8 | 251 | 0.0 | 1.6 | 0.00 | 0.00 | 0.00 | 91 | 1017.2 |
| 20260502032502 | 7 | 251 | 0.0 | 1.6 | 0.00 | 0.00 | 0.00 | 91 | 1017.2 |
| 20260502032002 | 7 | 0 | 0.0 | 0.0 | 0.00 | 0.00 | 0.00 | 91 | 1017.4 |
| 20260502031502 | 7 | 0 | 0.0 | 0.0 | 0.00 | 0.00 | 0.00 | 91 | 1017.5 |
| 20260502031023 | 7 | 0 | 0.0 | 0.0 | 0.00 | 0.00 | 0.00 | 91 | 1017.5 |
| 20260502030502 | 7 | 0 | 0.0 | 0.0 | 0.00 | 0.00 | 0.00 | 91 | 1017.5 |
| 20260502030002 | 7 | 0 | 0.0 | 0.0 | 0.00 | 0.00 | 0.00 | 91 | 1017.5 |
| 20260502025502 | 7 | 0 | 0.0 | 0.0 | 0.00 | 0.00 | 0.00 | 91 | 1017.6 |
| 20260502025002 | 7 | 0 | 0.0 | 0.0 | 0.00 | 0.00 | 0.00 | 90 | 1017.5 |
| 20260502024502 | 7 | 0 | 0.0 | 0.0 | 0.00 | 0.00 | 0.00 | 90 | 1017.6 |
| 20260502024004 | 7 | 0 | 0.0 | 0.0 | 0.00 | 0.00 | 0.00 | 90 | 1017.6 |
| 20260502023523 | 7 | 0 | 0.0 | 0.0 | 0.00 | 0.00 | 0.00 | 90 | 1017.6 |
| 20260502023003 | 7 | 0 | 0.0 | 0.0 | 0.00 | 0.00 | 0.00 | 91 | 1017.7 |
| 20260502022503 | 7 | 0 | 0.0 | 0.0 | 0.00 | 0.00 | 0.00 | 90 | 1017.8 |
| 20260502022004 | 8 | 0 | 0.0 | 0.0 | 0.00 | 0.00 | 0.00 | 90 | 1017.8 |
| 20260502021505 | 8 | 0 | 0.0 | 0.0 | 0.00 | 0.00 | 0.00 | 90 | 1017.9 |
| 20260502021004 | 8 | 0 | 0.0 | 0.0 | 0.00 | 0.00 | 0.00 | 90 | 1017.9 |
| 20260502020525 | 8 | 0 | 0.0 | 0.0 | 0.00 | 0.00 | 0.00 | 90 | 1017.9 |
| 20260502020004 | 8 | 0 | 0.0 | 0.0 | 0.00 | 0.00 | 0.00 | 90 | 1017.9 |
| 20260502015502 | 8 | 0 | 0.0 | 0.0 | 0.00 | 0.00 | 0.00 | 90 | 1017.9 |
| 20260502015002 | 8 | 0 | 0.0 | 0.0 | 0.00 | 0.00 | 0.00 | 90 | 1017.9 |
| 20260502014524 | 8 | 0 | 0.0 | 0.0 | 0.00 | 0.00 | 0.00 | 90 | 1017.9 |
| 20260502014002 | 9 | 0 | 0.0 | 0.0 | 0.00 | 0.00 | 0.00 | 90 | 1017.9 |
| 20260502013502 | 9 | 0 | 0.0 | 0.0 | 0.00 | 0.00 | 0.00 | 90 | 1017.9 |
| 20260502013003 | 9 | 0 | 0.0 | 0.0 | 0.00 | 0.00 | 0.00 | 90 | 1017.9 |
| 20260502012525 | 10 | 0 | 0.0 | 0.0 | 0.00 | 0.00 | 0.00 | 90 | 1017.9 |
| 20260502012002 | 10 | 0 | 0.0 | 0.0 | 0.00 | 0.00 | 0.00 | 90 | 1018.0 |
| 20260502011503 | 10 | 0 | 0.0 | 0.0 | 0.00 | 0.00 | 0.00 | 91 | 1018.1 |
| 20260502011003 | 10 | 251 | 0.0 | 1.6 | 0.00 | 0.00 | 0.00 | 91 | 1018.1 |
| 20260502010503 | 10 | 232 | 0.0 | 3.2 | 0.00 | 0.00 | 0.00 | 91 | 1018.2 |
| 20260502010003 | 10 | 225 | 0.0 | 3.2 | 0.00 | 0.00 | 0.00 | 91 | 1018.1 |
| 20260502005502 | 10 | 227 | 1.6 | 8.0 | 0.00 | 0.00 | 0.00 | 91 | 1018.2 |
| 20260502005003 | 10 | 226 | 1.6 | 8.0 | 0.00 | 0.00 | 0.00 | 91 | 1018.2 |
| 20260502004503 | 10 | 225 | 1.6 | 8.0 | 0.00 | 0.00 | 0.00 | 91 | 1018.3 |
| 20260502004023 | 10 | 233 | 0.0 | 4.8 | 0.00 | 0.00 | 0.00 | 91 | 1018.3 |
| 20260502003502 | 10 | 226 | 1.6 | 6.4 | 0.00 | 0.00 | 0.00 | 91 | 1018.3 |
| 20260502003003 | 10 | 230 | 1.6 | 6.4 | 0.00 | 0.00 | 0.00 | 91 | 1018.3 |
| 20260502002504 | 10 | 243 | 0.0 | 4.8 | 0.00 | 0.00 | 0.00 | 91 | 1018.4 |
| 20260502002024 | 10 | 219 | 1.6 | 4.8 | 0.00 | 0.00 | 0.00 | 90 | 1018.4 |
| 20260502001504 | 10 | 202 | 0.0 | 4.8 | 0.00 | 0.00 | 0.00 | 90 | 1018.5 |
| 20260502001003 | 10 | 205 | 1.6 | 8.0 | 0.00 | 0.00 | 0.00 | 90 | 1018.5 |
| 20260502000524 | 10 | 204 | 1.6 | 8.0 | 0.00 | 0.00 | 0.00 | 90 | 1018.4 |
| 20260502000003 | 10 | 216 | 1.6 | 12.9 | 0.00 | 0.00 | 0.00 | 90 | 1018.6 |
| 20260501235524 | 10 | 216 | 3.2 | 12.9 | 0.00 | 0.00 | 0.00 | 90 | 1018.6 |
| 20260501235003 | 10 | 209 | 1.6 | 6.4 | 0.00 | 0.00 | 0.00 | 90 | 1018.5 |
| 20260501234503 | 10 | 204 | 0.0 | 1.6 | 0.00 | 0.00 | 0.00 | 90 | 1018.6 |
| 20260501234025 | 10 | 184 | 0.0 | 4.8 | 0.00 | 0.00 | 0.00 | 90 | 1018.6 |
| 20260501233503 | 9 | 182 | 0.0 | 4.8 | 0.00 | 0.00 | 0.00 | 90 | 1018.6 |
| 20260501233003 | 9 | 182 | 0.0 | 1.6 | 0.00 | 0.00 | 0.00 | 89 | 1018.7 |
| 20260501232504 | 9 | 182 | 0.0 | 3.2 | 0.00 | 0.00 | 0.00 | 89 | 1018.8 |
| 20260501232005 | 9 | 190 | 0.0 | 6.4 | 0.00 | 0.00 | 0.00 | 89 | 1018.8 |
| 20260501231504 | 9 | 197 | 0.0 | 6.4 | 0.00 | 0.00 | 0.00 | 89 | 1018.9 |
| 20260501231004 | 9 | 223 | 0.0 | 3.2 | 0.00 | 0.00 | 0.00 | 89 | 1018.8 |
| 20260501230504 | 10 | 223 | 0.0 | 1.6 | 0.00 | 0.00 | 0.00 | 89 | 1018.8 |
| 20260501230005 | 10 | 223 | 0.0 | 1.6 | 0.00 | 0.00 | 0.00 | 89 | 1018.9 |
| 20260501225503 | 10 | 214 | 0.0 | 4.8 | 0.00 | 0.00 | 0.00 | 89 | 1018.9 |
| 20260501225003 | 10 | 201 | 0.0 | 4.8 | 0.00 | 0.00 | 0.00 | 89 | 1018.8 |
| 20260501224503 | 10 | 193 | 0.0 | 6.4 | 0.00 | 0.00 | 0.00 | 89 | 1018.9 |
| 20260501224003 | 10 | 199 | 0.0 | 6.4 | 0.00 | 0.00 | 0.00 | 89 | 1018.8 |
| 20260501223503 | 9 | 196 | 0.0 | 3.2 | 0.00 | 0.00 | 0.00 | 88 | 1018.8 |
| 20260501223003 | 9 | 196 | 0.0 | 3.2 | 0.00 | 0.00 | 0.00 | 88 | 1018.8 |
| 20260501222503 | 9 | 196 | 1.6 | 3.2 | 0.00 | 0.00 | 0.00 | 88 | 1018.7 |
| 20260501222003 | 9 | 196 | 0.0 | 3.2 | 0.00 | 0.00 | 0.00 | 88 | 1018.9 |
| 20260501221503 | 9 | 196 | 0.0 | 3.2 | 0.00 | 0.00 | 0.00 | 88 | 1018.8 |
| 20260501221003 | 10 | 196 | 0.0 | 3.2 | 0.00 | 0.00 | 0.00 | 88 | 1018.9 |
| 20260501220503 | 10 | 196 | 0.0 | 3.2 | 0.00 | 0.00 | 0.00 | 88 | 1018.9 |
| 20260501215503 | 10 | 0 | 0.0 | 0.0 | 0.00 | 0.00 | 0.00 | 87 | 1018.9 |
| 20260501215025 | 10 | 0 | 0.0 | 0.0 | 0.00 | 0.00 | 0.00 | 87 | 1018.9 |
| 20260501214504 | 10 | 196 | 0.0 | 3.2 | 0.00 | 0.00 | 0.00 | 87 | 1019.0 |
| 20260501214024 | 10 | 196 | 0.0 | 3.2 | 0.00 | 0.00 | 0.00 | 87 | 1018.9 |
| 20260501213503 | 10 | 196 | 0.0 | 1.6 | 0.00 | 0.00 | 0.00 | 87 | 1018.9 |
| 20260501213003 | 10 | 196 | 0.0 | 1.6 | 0.00 | 0.00 | 0.00 | 86 | 1018.9 |
| 20260501212524 | 10 | 196 | 0.0 | 1.6 | 0.00 | 0.00 | 0.00 | 86 | 1018.9 |
| 20260501212003 | 10 | 196 | 0.0 | 1.6 | 0.00 | 0.00 | 0.00 | 86 | 1018.9 |
| 20260501211503 | 10 | 190 | 0.0 | 3.2 | 0.00 | 0.00 | 0.00 | 86 | 1018.8 |
| 20260501211024 | 10 | 194 | 0.0 | 3.2 | 0.00 | 0.00 | 0.00 | 86 | 1018.7 |
| 20260501210503 | 10 | 217 | 0.0 | 3.2 | 0.00 | 0.00 | 0.00 | 86 | 1018.7 |
| 20260501210024 | 11 | 222 | 0.0 | 3.2 | 0.00 | 0.00 | 0.00 | 86 | 1018.7 |
| 20260501205503 | 11 | 226 | 0.0 | 3.2 | 0.00 | 0.00 | 0.00 | 86 | 1018.6 |
| 20260501205003 | 11 | 226 | 0.0 | 3.2 | 0.00 | 0.00 | 0.00 | 85 | 1018.6 |
| 20260501204503 | 11 | 204 | 0.0 | 3.2 | 0.00 | 0.00 | 0.00 | 85 | 1018.7 |
| 20260501204003 | 11 | 211 | 0.0 | 4.8 | 0.00 | 0.00 | 0.00 | 85 | 1018.7 |
| 20260501203503 | 11 | 208 | 0.0 | 4.8 | 0.00 | 0.00 | 0.00 | 85 | 1018.7 |
| 20260501203003 | 11 | 187 | 0.0 | 6.4 | 0.00 | 0.00 | 0.00 | 84 | 1018.6 |
| 20260501202504 | 11 | 193 | 1.6 | 6.4 | 0.00 | 0.00 | 0.00 | 84 | 1018.7 |
| 20260501202003 | 11 | 195 | 1.6 | 4.8 | 0.00 | 0.00 | 0.00 | 83 | 1018.6 |
| 20260501201525 | 12 | 198 | 1.6 | 6.4 | 0.00 | 0.00 | 0.00 | 83 | 1018.6 |
| 20260501201004 | 12 | 193 | 3.2 | 8.0 | 0.00 | 0.00 | 0.00 | 82 | 1018.5 |
| 20260501200505 | 12 | 188 | 3.2 | 8.0 | 0.00 | 0.00 | 0.00 | 82 | 1018.5 |
| 20260501200025 | 12 | 187 | 3.2 | 8.0 | 0.00 | 0.00 | 0.00 | 81 | 1018.5 |
| 20260501195504 | 12 | 185 | 1.6 | 6.4 | 0.00 | 0.00 | 0.00 | 80 | 1018.5 |
| 20260501195004 | 12 | 183 | 1.6 | 3.2 | 0.00 | 0.00 | 0.00 | 80 | 1018.4 |
| 20260501194505 | 13 | 174 | 1.6 | 4.8 | 0.00 | 0.00 | 0.00 | 79 | 1018.4 |
| 20260501194003 | 13 | 169 | 1.6 | 6.4 | 0.00 | 0.00 | 0.00 | 79 | 1018.3 |
| 20260501193503 | 13 | 168 | 3.2 | 6.4 | 0.00 | 0.00 | 0.00 | 78 | 1018.2 |
| 20260501193003 | 13 | 166 | 3.2 | 6.4 | 0.00 | 0.00 | 0.00 | 77 | 1018.2 |
| 20260501192524 | 13 | 173 | 3.2 | 6.4 | 0.00 | 0.00 | 0.00 | 76 | 1018.2 |
| 20260501192001 | 13 | 194 | 3.2 | 9.7 | 0.00 | 0.00 | 0.00 | 76 | 1018.1 |
| 20260501191501 | 14 | 195 | 1.6 | 9.7 | 0.00 | 0.00 | 0.00 | 75 | 1018.1 |
| 20260501191001 | 14 | 188 | 3.2 | 9.7 | 0.00 | 0.00 | 0.00 | 74 | 1018.1 |
| 20260501190501 | 14 | 187 | 3.2 | 6.4 | 0.00 | 0.00 | 0.00 | 74 | 1018.1 |
| 20260501190001 | 15 | 184 | 3.2 | 9.7 | 0.00 | 0.00 | 0.00 | 74 | 1018.1 |
| 20260501185522 | 15 | 176 | 4.8 | 9.7 | 0.00 | 0.00 | 0.00 | 73 | 1018.1 |
| 20260501185001 | 15 | 180 | 4.8 | 9.7 | 0.00 | 0.00 | 0.00 | 72 | 1018.0 |
| 20260501184522 | 15 | 187 | 3.2 | 9.7 | 0.00 | 0.00 | 0.00 | 72 | 1018.0 |
| 20260501184001 | 15 | 188 | 1.6 | 6.4 | 0.00 | 0.00 | 0.00 | 71 | 1018.0 |
| 20260501183501 | 15 | 197 | 1.6 | 4.8 | 0.00 | 0.00 | 0.00 | 70 | 1017.9 |
| 20260501183001 | 16 | 202 | 1.6 | 8.0 | 0.00 | 0.00 | 0.00 | 70 | 1017.9 |
| 20260501182501 | 16 | 201 | 1.6 | 8.0 | 0.00 | 0.00 | 0.00 | 69 | 1017.9 |
| 20260501182022 | 16 | 201 | 1.6 | 4.8 | 0.00 | 0.00 | 0.00 | 69 | 1017.8 |
| 20260501181501 | 16 | 201 | 3.2 | 8.0 | 0.00 | 0.00 | 0.00 | 68 | 1017.8 |
| 20260501181001 | 16 | 201 | 3.2 | 8.0 | 0.00 | 0.00 | 0.00 | 67 | 1017.8 |
| 20260501180501 | 16 | 198 | 3.2 | 9.7 | 0.00 | 0.00 | 0.00 | 67 | 1017.8 |
| 20260501180001 | 16 | 199 | 3.2 | 9.7 | 0.00 | 0.00 | 0.00 | 69 | 1017.8 |
| 20260501175501 | 16 | 195 | 3.2 | 8.0 | 0.00 | 0.00 | 0.00 | 70 | 1017.8 |
| 20260501175001 | 16 | 187 | 3.2 | 8.0 | 0.00 | 0.00 | 0.00 | 70 | 1017.8 |
| 20260501174522 | 16 | 189 | 3.2 | 8.0 | 0.00 | 0.00 | 0.00 | 69 | 1017.8 |
| 20260501174001 | 16 | 191 | 3.2 | 12.9 | 0.00 | 0.00 | 0.00 | 69 | 1017.8 |
| 20260501173501 | 16 | 194 | 4.8 | 12.9 | 0.00 | 0.00 | 0.00 | 69 | 1017.8 |
| 20260501173001 | 17 | 204 | 3.2 | 8.0 | 0.00 | 0.00 | 0.00 | 68 | 1017.9 |
| 20260501172501 | 16 | 196 | 4.8 | 11.3 | 0.00 | 0.00 | 0.00 | 67 | 1017.9 |
| 20260501172001 | 16 | 186 | 6.4 | 16.1 | 0.00 | 0.00 | 0.00 | 66 | 1018.0 |
| 20260501171502 | 16 | 193 | 6.4 | 16.1 | 0.00 | 0.00 | 0.00 | 67 | 1018.0 |
| 20260501171023 | 16 | 196 | 6.4 | 11.3 | 0.00 | 0.00 | 0.00 | 67 | 1017.9 |
| 20260501170502 | 16 | 184 | 8.0 | 19.3 | 0.00 | 0.00 | 0.00 | 69 | 1018.1 |
| 20260501170003 | 16 | 195 | 8.0 | 19.3 | 0.00 | 0.00 | 0.00 | 70 | 1018.1 |
| 20260501165502 | 16 | 217 | 4.8 | 12.9 | 0.00 | 0.00 | 0.00 | 71 | 1018.1 |
| 20260501165002 | 16 | 198 | 6.4 | 12.9 | 0.00 | 0.00 | 0.00 | 70 | 1018.2 |
| 20260501164504 | 16 | 184 | 9.7 | 19.3 | 0.00 | 0.00 | 0.00 | 70 | 1018.1 |
| 20260501164001 | 17 | 184 | 9.7 | 20.9 | 0.00 | 0.00 | 0.00 | 70 | 1018.2 |
| 20260501163501 | 17 | 185 | 6.4 | 20.9 | 0.00 | 0.00 | 0.00 | 68 | 1018.2 |
| 20260501163001 | 17 | 180 | 8.0 | 14.5 | 0.00 | 0.00 | 0.00 | 67 | 1018.2 |
| 20260501162501 | 17 | 181 | 9.7 | 20.9 | 0.00 | 0.00 | 0.00 | 69 | 1018.2 |
| 20260501162001 | 17 | 184 | 9.7 | 20.9 | 0.00 | 0.00 | 0.00 | 69 | 1018.2 |
| 20260501161501 | 17 | 180 | 9.7 | 17.7 | 0.00 | 0.00 | 0.00 | 69 | 1018.2 |
| 20260501161001 | 18 | 180 | 11.3 | 17.7 | 0.00 | 0.00 | 0.00 | 69 | 1018.2 |